Friday Harbor, WA
on Friday, November 30, 2012

Friday
Previous Day Next Day
Daily Summary
 ActualAverageRecord
Temperature
Mean Temperature °F °F  
Max Temperature 52°F 45°F 54°F (2002)
Min Temperature 48°F 36°F 28°F (2006)
Degree Days
Heating Degree Days 15    
Moisture
Dew Point 46°F   
Average Humidity 84    
Maximum Humidity 93    
Minimum Humidity 69    
Precipitation
Precipitation 0.05 in in in ()
Wind
Wind Speed 15 mph   
Max Wind Speed 22 mph   
Max Gust Speed 33 mph   
Visibility 10 miles   
Events Rain   
Averages and records for this station are not official NWS values.
Key: T is trace of precipitation, MM is missing value
Source: NWS Daily Summary
Seasonal Weather Averages
Time(PST)TemperatureDew PointHumidity Pressure Visibility Wind DirectionWind SpeedGust SpeedPrecipitationEvents Conditions
12:53 AM 51.1°F 42.1°F 71% 29.37 in 10.0 miles ESE 11.5 mph 20.7 mph N/A   Partly Cloudy
1:53 AM 52.0°F 42.1°F 69% 29.35 in 10.0 miles ESE 20.7 mph 31.1 mph N/A   Clear
2:53 AM 51.1°F 43.0°F 74% 29.34 in 10.0 miles ESE 20.7 mph 33.4 mph N/A   Scattered Clouds
3:53 AM 51.1°F 44.1°F 77% 29.33 in 10.0 miles SE 21.9 mph 28.8 mph N/A   Mostly Cloudy
4:53 AM 50.0°F 44.1°F 80% 29.34 in 10.0 miles SE 13.8 mph - N/A   Overcast
5:53 AM 50.0°F 44.1°F 80% 29.31 in 10.0 miles ESE 13.8 mph 23.0 mph N/A   Partly Cloudy
6:53 AM 51.1°F 44.1°F 77% 29.31 in 10.0 miles SE 15.0 mph 24.2 mph N/A   Partly Cloudy
7:53 AM 51.1°F 44.1°F 77% 29.34 in 10.0 miles South 13.8 mph 29.9 mph 0.00 in Rain Light Rain
8:16 AM 50.0°F 46.4°F 87% 29.36 in 6.0 miles SSW 12.7 mph 26.5 mph 0.01 in Rain Light Rain
8:53 AM 48.9°F 46.9°F 93% 29.35 in 10.0 miles South 4.6 mph - 0.02 in   Overcast
9:23 AM 50.0°F 46.4°F 87% 29.35 in 10.0 miles SE 16.1 mph 21.9 mph N/A   Mostly Cloudy
9:49 AM 50.0°F 46.4°F 87% 29.36 in 10.0 miles SSE 15.0 mph 24.2 mph 0.00 in Rain Light Rain
9:53 AM 50.0°F 46.0°F 86% 29.36 in 10.0 miles SE 17.3 mph 25.3 mph 0.00 in Rain Light Rain
10:53 AM 51.1°F 46.9°F 86% 29.38 in 10.0 miles SE 11.5 mph 20.7 mph 0.00 in Rain Light Rain
11:21 AM 51.8°F 46.4°F 82% 29.36 in 7.0 miles SE 15.0 mph 21.9 mph 0.00 in Rain Light Rain
11:53 AM 51.1°F 46.9°F 86% 29.36 in 10.0 miles SSE 11.5 mph 23.0 mph 0.00 in   Overcast
12:35 PM 51.8°F 48.2°F 88% 29.35 in 10.0 miles SE 16.1 mph 25.3 mph 0.03 in Rain Light Rain
12:46 PM 51.8°F 46.4°F 82% 29.35 in 10.0 miles SE 15.0 mph - 0.03 in   Mostly Cloudy
12:53 PM 51.1°F 46.9°F 86% 29.36 in 10.0 miles SSE 16.1 mph 23.0 mph 0.03 in   Mostly Cloudy
1:53 PM 51.1°F 48.0°F 89% 29.38 in 8.0 miles SSE 8.1 mph - 0.00 in Rain Light Rain
2:53 PM 50.0°F 48.0°F 93% 29.38 in 8.0 miles SSE 6.9 mph - 0.00 in Rain Light Rain
3:53 PM 48.9°F 46.9°F 93% 29.39 in 10.0 miles SE 5.8 mph - 0.00 in   Partly Cloudy
4:53 PM 50.0°F 46.9°F 89% 29.39 in 10.0 miles ESE 8.1 mph - N/A   Mostly Cloudy
5:07 PM 48.2°F 46.4°F 93% 29.39 in 10.0 miles SE 11.5 mph - N/A   Mostly Cloudy
5:53 PM 50.0°F 46.9°F 89% 29.39 in 10.0 miles South 5.8 mph - N/A   Overcast
7:31 PM 48.2°F 44.6°F 87% 29.36 in 10.0 miles SE 13.8 mph 19.6 mph N/A   Overcast
7:53 PM 48.9°F 45.0°F 86% 29.37 in 10.0 miles SE 15.0 mph - N/A   Mostly Cloudy
8:09 PM 48.2°F 44.6°F 87% 29.36 in 10.0 miles SE 15.0 mph 21.9 mph N/A   Mostly Cloudy
8:53 PM 48.9°F 45.0°F 86% 29.34 in 10.0 miles ESE 17.3 mph 24.2 mph N/A   Mostly Cloudy
9:37 PM 50.0°F 44.6°F 82% 29.35 in 10.0 miles SSE 18.4 mph 25.3 mph N/A   Mostly Cloudy
9:50 PM 50.0°F 44.6°F 82% 29.33 in 10.0 miles SE 19.6 mph 28.8 mph N/A   Overcast
9:53 PM 50.0°F 45.0°F 83% 29.33 in 10.0 miles SE 21.9 mph 28.8 mph N/A   Overcast
10:53 PM 50.0°F 45.0°F 83% 29.33 in 10.0 miles ESE 19.6 mph 32.2 mph N/A   Mostly Cloudy
11:53 PM 50.0°F 45.0°F 83% 29.32 in 10.0 miles SE 20.7 mph 33.4 mph 0.00 in Rain Light Rain
Moon Phase
Nov. 30 Dec. 06 Dec. 13 Dec. 20 Dec. 28
Sunrise:07:42 AM (PST) Moon Rise:06:20 PM (PST)11/30
Sunset:04:19 PM (PST) Moon Set:09:17 AM (PST)11/30

Copyright © 2014 The Weather Underground, Inc.